Weather History for Gonzales, LA

Change the Weather History Date:

Friday, November 15, 2013

  Actual Average (KBTR) Record (KBTR)
Temperature  
Mean Temperature 66 °F 60 °F  
Max Temperature 76 °F 72 °F 86 °F (1910)
Min Temperature 57 °F 49 °F 22 °F (1940)
Degree Days  
Heating Degree Days 0 6  
Month to date heating degree days 70  
Since 1 July heating degree days 116  
Cooling Degree Days 2 2  
Month to date cooling degree days 34  
Year to date cooling degree days 2784  
Growing Degree Days 16 (Base 50)    
Moisture  
Dew Point 61 °F    
Average Humidity 85    
Maximum Humidity 94    
Minimum Humidity 67    
Precipitation  
Precipitation 0.00 in 0.13 in 3.06 in (2011)
Month to date precipitation 2.07  
Year to date precipitation 53.02  
Snow  
Snow 0.00 in - - ()
Month to date snowfall  
Since 1 July snowfall  
Since 1 September snowfall  
Snow Depth -    
Sea Level Pressure  
Sea Level Pressure 30.04 in    
Wind  
Wind Speed 2 mph (ENE)    
Max Wind Speed 8 mph    
Max Gust Speed -    
Visibility 10 miles    
Events Rain    
T = Trace of Precipitation, MM = Missing Value Source: NWS Daily Summary

Daily Weather History Graph

Daily Weather History Graph

Search for Another Location

Airport:

Trip Planner

Search our weather history database for the weather conditions in past years. The results will help you decide how hot, cold, wet, or windy it might be!

Date:

Astronomy

Nov. 15, 2013 Rise Set
Actual Time 6:29 AM CST 5:07 PM CST
Civil Twilight 6:03 AM CST 5:32 PM CST
Nautical Twilight 5:35 AM CST 6:01 PM CST
Astronomical Twilight 5:06 AM CST 6:30 PM CST
Moon 3:58 PM CST (11/15) 4:33 AM CST (11/15)
Length of Visible Light 11h 28m
Length of Day
10h 37m
Waxing Gibbous, 96% of the Moon is Illuminated
Nov 15
Waxing Gibbous
Nov 17
Full
Nov 25
Last Quarter
Dec 2
New
Dec 9
First Quarter

Hourly Weather History & Observations

Time (CST) Temp. Dew Point Humidity Pressure Visibility Wind Dir Wind Speed Gust Speed Precip Events Conditions
12:15 AM 59.0 °F 53.6 °F 82% 30.11 in 10.0 mi Calm Calm - N/A   Overcast
12:55 AM 59.0 °F 54.1 °F 84% 30.10 in 10.0 mi NNE 3.5 mph - N/A   Overcast
1:15 AM 59.0 °F 54.5 °F 85% 30.11 in 10.0 mi NNE 3.5 mph - N/A   Overcast
1:35 AM 58.5 °F 54.0 °F 85% 30.10 in 10.0 mi NNE 4.6 mph - N/A   Overcast
1:55 AM 58.1 °F 54.0 °F 86% 30.08 in 10.0 mi ENE 5.8 mph - N/A Rain Light Rain
2:15 AM 58.1 °F 54.0 °F 86% 30.08 in 10.0 mi NE 3.5 mph - N/A   Overcast
2:35 AM 58.1 °F 53.6 °F 85% 30.08 in 10.0 mi NE 4.6 mph - N/A   Overcast
2:55 AM 58.1 °F 53.6 °F 85% 30.08 in 10.0 mi Calm Calm - N/A   Overcast
3:15 AM 58.1 °F 53.6 °F 85% 30.07 in 10.0 mi Calm Calm - N/A   Overcast
3:35 AM 58.1 °F 53.6 °F 85% 30.07 in 10.0 mi Calm Calm - N/A   Overcast
3:55 AM 58.1 °F 53.8 °F 86% 30.06 in 10.0 mi Calm Calm - N/A Rain Light Rain
4:15 AM 57.7 °F 53.8 °F 87% 30.06 in 10.0 mi Calm Calm - N/A   Overcast
4:35 AM 57.7 °F 54.0 °F 87% 30.06 in 10.0 mi Calm Calm - N/A   Overcast
4:55 AM 57.7 °F 54.1 °F 88% 30.05 in 10.0 mi Calm Calm - N/A   Overcast
5:15 AM 58.1 °F 54.5 °F 88% 30.06 in 10.0 mi Calm Calm - N/A   Overcast
5:35 AM 58.1 °F 54.7 °F 88% 30.05 in 10.0 mi Calm Calm - N/A   Overcast
5:55 AM 58.3 °F 54.9 °F 88% 30.05 in 10.0 mi Calm Calm - N/A   Overcast
6:15 AM 58.5 °F 55.4 °F 90% 30.07 in 10.0 mi Calm Calm - N/A   Overcast
6:35 AM 58.5 °F 55.6 °F 90% 30.06 in 10.0 mi Calm Calm - N/A   Drizzle
6:55 AM 58.6 °F 56.3 °F 92% 30.06 in 10.0 mi Calm Calm - N/A   Overcast
7:15 AM 59.0 °F 56.8 °F 93% 30.06 in 10.0 mi Calm Calm - N/A   Overcast
7:35 AM 59.5 °F 57.4 °F 93% 30.07 in 10.0 mi Calm Calm - N/A   Overcast
7:55 AM 60.1 °F 57.6 °F 91% 30.07 in 10.0 mi Calm Calm - N/A   Overcast
8:15 AM 60.8 °F 58.1 °F 91% 30.08 in 10.0 mi Calm Calm - N/A   Overcast
8:35 AM 61.3 °F 58.1 °F 89% 30.08 in 10.0 mi ENE 3.5 mph - N/A   Overcast
8:55 AM 61.7 °F 58.5 °F 89% 30.07 in 10.0 mi ENE 4.6 mph - N/A   Mostly Cloudy
9:15 AM 62.8 °F 59.0 °F 87% 30.08 in 10.0 mi North - - N/A   Clear
9:35 AM 64.4 °F 60.1 °F 86% 30.08 in - Calm Calm - N/A   Mostly Cloudy
9:55 AM 66.2 °F 61.2 °F 84% 30.09 in 10.0 mi Calm Calm - N/A   Overcast
10:15 AM 68.9 °F 62.4 °F 80% 30.09 in - Calm Calm - N/A   Mostly Cloudy
10:35 AM 69.1 °F 62.6 °F 80% 30.08 in - East 3.5 mph - N/A   Scattered Clouds
10:55 AM 69.4 °F 62.8 °F 79% 30.07 in 10.0 mi East 3.5 mph - N/A   Scattered Clouds
11:15 AM 70.7 °F 63.7 °F 78% 30.06 in 10.0 mi Calm Calm - N/A   Clear
11:35 AM 73.0 °F 64.8 °F 75% 30.05 in - Calm Calm - N/A   Scattered Clouds
11:55 AM 74.3 °F 64.9 °F 72% 30.04 in 10.0 mi NNE 3.5 mph - N/A   Scattered Clouds
12:15 PM 73.8 °F 65.3 °F 75% 30.03 in - Calm Calm - N/A   Mostly Cloudy
12:35 PM 74.8 °F 65.1 °F 72% 30.01 in - ENE 4.6 mph - N/A   Scattered Clouds
12:55 PM 75.6 °F 65.5 °F 71% 30.00 in - East 6.9 mph - N/A   Scattered Clouds
1:15 PM 74.5 °F 65.3 °F 73% 29.99 in - NE 6.9 mph - N/A   Scattered Clouds
1:35 PM 75.4 °F 65.1 °F 70% 29.98 in - East 5.8 mph - N/A   Scattered Clouds
1:55 PM 75.6 °F 64.8 °F 69% 29.98 in - East 3.5 mph - N/A   Scattered Clouds
2:15 PM 75.9 °F 64.8 °F 68% 29.98 in - ESE 5.8 mph - N/A   Scattered Clouds
2:35 PM 76.6 °F 64.8 °F 67% 29.97 in - East 6.9 mph - N/A   Scattered Clouds
2:55 PM 75.2 °F 64.9 °F 70% 29.97 in - ENE 5.8 mph - N/A   Scattered Clouds
3:15 PM 74.7 °F 65.5 °F 73% 29.97 in 10.0 mi East 6.9 mph - N/A   Scattered Clouds
3:35 PM 74.7 °F 65.3 °F 73% 29.97 in 10.0 mi East 4.6 mph - N/A   Scattered Clouds
3:55 PM 73.9 °F 65.3 °F 74% 29.97 in 10.0 mi East 6.9 mph - N/A   Scattered Clouds
4:15 PM 73.4 °F 65.3 °F 76% 29.97 in 10.0 mi ENE 8.1 mph - N/A   Clear
4:35 PM 72.3 °F 65.3 °F 78% 29.97 in 10.0 mi ENE 5.8 mph - N/A   Clear
4:55 PM 70.9 °F 64.9 °F 81% 29.97 in 10.0 mi ENE 5.8 mph - N/A   Clear
5:15 PM 69.3 °F 64.9 °F 86% 29.97 in 10.0 mi ENE 5.8 mph - N/A   Clear
5:35 PM 68.2 °F 64.9 °F 89% 29.98 in 10.0 mi ENE 3.5 mph - N/A   Clear
5:55 PM 67.8 °F 64.9 °F 90% 29.98 in 10.0 mi East 3.5 mph - N/A   Scattered Clouds
6:15 PM 67.3 °F 65.1 °F 93% 29.99 in 10.0 mi East 3.5 mph - N/A   Scattered Clouds
6:35 PM 67.1 °F 65.1 °F 93% 30.00 in 10.0 mi ENE 3.5 mph - N/A   Scattered Clouds
6:55 PM 67.1 °F 64.9 °F 93% 30.00 in 10.0 mi ENE 4.6 mph - N/A   Overcast
7:15 PM 67.3 °F 64.6 °F 91% 30.01 in 7.0 mi ENE 3.5 mph - N/A   Overcast
7:35 PM 67.1 °F 64.6 °F 92% 30.01 in 7.0 mi ENE 3.5 mph - N/A   Overcast
7:55 PM 66.6 °F 64.4 °F 93% 30.02 in 7.0 mi ENE 4.6 mph - N/A   Overcast
8:15 PM 66.2 °F 64.0 °F 93% 30.03 in 7.0 mi ENE 4.6 mph - N/A   Overcast
8:35 PM 65.8 °F 63.7 °F 93% 30.03 in 7.0 mi East 3.5 mph - N/A   Overcast
8:55 PM 65.3 °F 63.1 °F 93% 30.03 in 5.0 mi NE 4.6 mph - N/A   Overcast
9:15 PM 64.9 °F 62.6 °F 92% 30.03 in 7.0 mi East 3.5 mph - N/A   Overcast
9:35 PM 64.6 °F 62.6 °F 93% 30.03 in 7.0 mi East 4.6 mph - N/A   Overcast
9:55 PM 64.4 °F 61.9 °F 92% 30.03 in 10.0 mi East 3.5 mph - N/A   Overcast
10:15 PM 64.4 °F 61.7 °F 91% 30.03 in 10.0 mi East 5.8 mph - N/A   Overcast
10:35 PM 64.4 °F 61.7 °F 91% 30.03 in 10.0 mi East 4.6 mph - N/A   Overcast
11:15 PM 64.0 °F 61.9 °F 93% 30.03 in 10.0 mi Calm Calm - N/A   Overcast
11:35 PM 63.7 °F 61.9 °F 94% 30.03 in 10.0 mi East 3.5 mph - N/A   Overcast
11:55 PM 63.7 °F 61.9 °F 94% 30.03 in 10.0 mi Calm Calm - N/A   Overcast